Ardmore, OK

7:06 PM CST on February 05, 2016 (GMT -0600)
Ardmore Downtown

Weather History for K1F0 - February, 2013

Change the Weather History Date:

Thursday, February 7, 2013

  Actual Average (KADM) Record (KADM)
Temperature  
Mean Temperature 60 °F -  
Max Temperature 73 °F 52 °F 80 °F (1999)
Min Temperature 46 °F 34 °F 19 °F (2003)
Degree Days  
Heating Degree Days 4    
Growing Degree Days 10 (Base 50)    
Moisture  
Dew Point 50 °F    
Average Humidity 79    
Maximum Humidity 100    
Minimum Humidity 35    
Precipitation  
Precipitation 0.00 in - - ()
Sea Level Pressure  
Sea Level Pressure 29.92 in    
Wind  
Wind Speed 8 mph (East)    
Max Wind Speed 17 mph    
Max Gust Speed 25 mph    
Visibility 7 miles    
Events Rain , Thunderstorm    
Averages and records for this station are not official NWS values.
T = Trace of Precipitation, MM = Missing Value Source: NWS Daily Summary

Daily Weather History Graph

Daily Weather History Graph

Search for Another Location

Airport or City:

Trip Planner

Search our weather history database for the weather conditions in past years. The results will help you decide how hot, cold, wet, or windy it might be!

Date:

Astronomy

Feb. 07, 2013 Rise Set
Actual Time 7:20 AM CST 6:04 PM CST
Civil Twilight 6:54 AM CST 6:30 PM CST
Nautical Twilight 6:25 AM CST 7:00 PM CST
Astronomical Twilight 5:55 AM CST 7:29 PM CST
Moon 4:57 AM CST (2/7) 3:34 PM CST (2/7)
Length of Visible Light 11h 36m
Length of Day
10h 44m
Waning Crescent, 9% of the Moon is Illuminated
Feb 7
Waning Crescent
Feb 10
New
Feb 17
First Quarter
Feb 25
Full
Mar 4
Last Quarter

Hourly Weather History & Observations

Time (CST) Temp. Windchill Dew Point Humidity Pressure Visibility Wind Dir Wind Speed Gust Speed Precip Events Conditions
12:15 AM 55.4 °F - 53.6 °F 94% 29.90 in 4.0 mi SSE 11.5 mph - N/A Thunderstorm Overcast
12:35 AM 55.4 °F - 53.6 °F 94% 29.89 in 2.5 mi SSE 9.2 mph 16.1 mph N/A   Overcast
12:55 AM 55.4 °F - 53.6 °F 94% 29.93 in 2.5 mi NNE 5.8 mph - N/A Thunderstorm Overcast
1:15 AM 53.6 °F - 53.6 °F 100% 29.90 in 1.5 mi SE 6.9 mph - N/A   Overcast
1:35 AM 55.4 °F - 53.6 °F 94% 29.90 in 1.2 mi SE 6.9 mph - N/A Thunderstorm Overcast
1:55 AM 53.6 °F - 53.6 °F 100% 29.89 in 1.0 mi SSE 8.1 mph - N/A   Overcast
2:15 AM 53.6 °F - 53.6 °F 100% 29.89 in 0.8 mi SE 8.1 mph - N/A   Overcast
2:35 AM 53.6 °F - 53.6 °F 100% 29.88 in 1.0 mi SE 8.1 mph - N/A Rain Light Rain
2:55 AM 53.6 °F - 53.6 °F 100% 29.88 in 1.5 mi SSE 6.9 mph - N/A   Drizzle
3:15 AM 53.6 °F - 53.6 °F 100% 29.87 in 1.8 mi SE 6.9 mph - N/A   Overcast
3:35 AM 53.6 °F - 53.6 °F 100% 29.87 in 2.0 mi SSE 8.1 mph - N/A   Overcast
3:55 AM 55.4 °F - 53.6 °F 94% 29.86 in 2.0 mi SSE 8.1 mph - N/A   Overcast
4:15 AM 55.4 °F - 53.6 °F 94% 29.85 in 2.5 mi SSE 6.9 mph - N/A   Overcast
4:35 AM 55.4 °F - 53.6 °F 94% 29.85 in 2.0 mi SSE 6.9 mph - N/A   Overcast
4:55 AM 55.4 °F - 55.4 °F 100% 29.85 in 3.0 mi South 5.8 mph - N/A   Overcast
5:15 AM 55.4 °F - 55.4 °F 100% 29.84 in 3.0 mi SSE 8.1 mph - N/A   Overcast
5:35 AM 55.4 °F - 55.4 °F 100% 29.84 in 3.0 mi SSE 8.1 mph - N/A   Overcast
5:55 AM 55.4 °F - 55.4 °F 100% 29.84 in 3.0 mi South 6.9 mph - N/A   Overcast
6:15 AM 55.4 °F - 55.4 °F 100% 29.84 in 3.0 mi SSE 10.4 mph - N/A   Overcast
6:35 AM 55.4 °F - 55.4 °F 100% 29.83 in 3.0 mi SSE 9.2 mph - N/A   Overcast
6:55 AM 55.4 °F - 55.4 °F 100% 29.83 in 3.0 mi South 9.2 mph - N/A   Overcast
7:15 AM 55.4 °F - 55.4 °F 100% 29.84 in 3.0 mi South 6.9 mph - N/A   Overcast
7:35 AM 57.2 °F - 55.4 °F 94% 29.84 in 4.0 mi South 6.9 mph - N/A   Overcast
7:55 AM 57.2 °F - 55.4 °F 94% 29.85 in 3.0 mi South 6.9 mph - N/A   Overcast
8:15 AM 57.2 °F - 55.4 °F 94% 29.85 in 3.0 mi South 6.9 mph - N/A   Overcast
8:35 AM 57.2 °F - 55.4 °F 94% 29.85 in 3.0 mi South 5.8 mph - N/A   Overcast
8:55 AM 57.2 °F - 55.4 °F 94% 29.85 in 4.0 mi SSE 4.6 mph - N/A   Overcast
9:15 AM 59.0 °F - 55.4 °F 88% 29.85 in 5.0 mi South 4.6 mph - N/A   Overcast
9:35 AM 59.0 °F - 55.4 °F 88% 29.85 in 5.0 mi South 8.1 mph - N/A   Overcast
10:15 AM 62.6 °F - 55.4 °F 77% 29.84 in 10.0 mi SSW 6.9 mph - N/A   Overcast
10:35 AM 64.4 °F - 55.4 °F 73% 29.85 in 10.0 mi SSW 9.2 mph - N/A   Overcast
10:55 AM 64.4 °F - 55.4 °F 73% 29.85 in 10.0 mi SSW 8.1 mph - N/A   Overcast
11:15 AM 66.2 °F - 53.6 °F 64% 29.85 in 10.0 mi SW 4.6 mph - N/A   Overcast
11:35 AM 68.0 °F - 51.8 °F 56% 29.84 in 10.0 mi SW 6.9 mph - N/A   Overcast
11:55 AM 69.8 °F - 51.8 °F 53% 29.84 in 10.0 mi SW 6.9 mph - N/A   Overcast
12:15 PM 69.8 °F - 51.8 °F 53% 29.83 in 10.0 mi SW 4.6 mph - N/A   Mostly Cloudy
12:35 PM 69.8 °F - 51.8 °F 53% 29.82 in 10.0 mi West 3.5 mph - N/A   Mostly Cloudy
12:55 PM 69.8 °F - 50.0 °F 49% 29.82 in 10.0 mi SSW 5.8 mph - N/A   Scattered Clouds
1:15 PM 71.6 °F - 50.0 °F 46% 29.82 in 10.0 mi WNW 5.8 mph - N/A   Mostly Cloudy
1:35 PM 73.4 °F - 46.4 °F 38% 29.82 in 10.0 mi West 9.2 mph - N/A   Mostly Cloudy
1:55 PM 71.6 °F - 44.6 °F 38% 29.82 in 10.0 mi NW 6.9 mph - N/A   Scattered Clouds
2:15 PM 71.6 °F - 42.8 °F 35% 29.82 in 10.0 mi North 6.9 mph - N/A   Scattered Clouds
2:35 PM 68.0 °F - 55.4 °F 64% 29.83 in 10.0 mi NE 12.7 mph - N/A   Mostly Cloudy
2:55 PM 68.0 °F - 55.4 °F 64% 29.84 in 10.0 mi NNE 8.1 mph - N/A   Overcast
3:15 PM 69.8 °F - 53.6 °F 56% 29.84 in 10.0 mi NNE 8.1 mph - N/A   Mostly Cloudy
3:35 PM 69.8 °F - 55.4 °F 60% 29.85 in 10.0 mi NE 4.6 mph 9.2 mph N/A   Scattered Clouds
3:55 PM 62.6 °F - 51.8 °F 68% 29.86 in 10.0 mi NNE 11.5 mph 23.0 mph N/A   Mostly Cloudy
4:15 PM 60.8 °F - 50.0 °F 68% 29.88 in 10.0 mi North 11.5 mph 24.2 mph N/A   Scattered Clouds
4:35 PM 59.0 °F - 50.0 °F 72% 29.91 in 10.0 mi NNE 17.3 mph 25.3 mph N/A   Clear
4:55 PM 59.0 °F - 48.2 °F 67% 29.94 in 10.0 mi North 15.0 mph 24.2 mph N/A   Mostly Cloudy
5:15 PM 55.4 °F - 46.4 °F 72% 29.95 in 10.0 mi NNE 12.7 mph 21.9 mph N/A   Overcast
5:35 PM 55.4 °F - 46.4 °F 72% 29.97 in 10.0 mi NNE 13.8 mph 25.3 mph N/A   Overcast
5:55 PM 55.4 °F - 46.4 °F 72% 29.98 in 10.0 mi NNE 13.8 mph 24.2 mph N/A   Overcast
6:15 PM 53.6 °F - 46.4 °F 77% 29.99 in 10.0 mi North 13.8 mph 20.7 mph N/A   Overcast
6:35 PM 53.6 °F - 46.4 °F 77% 30.00 in 10.0 mi NNE 11.5 mph 17.3 mph N/A   Overcast
6:55 PM 53.6 °F - 46.4 °F 77% 30.01 in 10.0 mi North 11.5 mph 18.4 mph N/A   Overcast
7:15 PM 53.6 °F - 46.4 °F 77% 30.02 in 10.0 mi North 10.4 mph 17.3 mph N/A   Overcast
7:35 PM 53.6 °F - 46.4 °F 77% 30.03 in 10.0 mi North 9.2 mph 18.4 mph N/A   Overcast
7:55 PM 51.8 °F - 46.4 °F 82% 30.05 in 10.0 mi North 13.8 mph 20.7 mph N/A   Overcast
8:15 PM 51.8 °F - 44.6 °F 76% 30.06 in 10.0 mi North 10.4 mph 21.9 mph N/A   Overcast
8:35 PM 51.8 °F - 44.6 °F 76% 30.07 in 10.0 mi North 9.2 mph 19.6 mph N/A   Overcast
8:55 PM 50.0 °F - 42.8 °F 76% 30.07 in 10.0 mi NNE 11.5 mph 19.6 mph N/A   Scattered Clouds
9:15 PM 50.0 °F - 42.8 °F 76% 30.08 in 10.0 mi NNE 8.1 mph - N/A   Clear
9:35 PM 50.0 °F - 42.8 °F 76% 30.10 in 10.0 mi North 5.8 mph - N/A   Clear
9:55 PM 50.0 °F - 42.8 °F 76% 30.11 in 10.0 mi North 6.9 mph - N/A   Clear
10:15 PM 50.0 °F - 42.8 °F 76% 30.11 in 10.0 mi North 5.8 mph - N/A   Clear
10:35 PM 50.0 °F - 41.0 °F 71% 30.12 in 10.0 mi North 5.8 mph - N/A   Clear
10:55 PM 48.2 °F - 39.2 °F 71% 30.12 in 10.0 mi North 5.8 mph - N/A   Clear
11:15 PM 48.2 °F - 37.4 °F 66% 30.13 in 10.0 mi North 9.2 mph - N/A   Clear
11:35 PM 48.2 °F - 37.4 °F 66% 30.13 in 10.0 mi North 9.2 mph - N/A   Clear
11:55 PM 46.4 °F 42.9 °F 37.4 °F 71% 30.14 in 10.0 mi North 6.9 mph - N/A   Clear